contact:dominique.lefevre@mio.osupytheas.fr, maurice.libes@osupytheas.fr, didier.mallarino@osupytheas.fr
Project:EMSO http://www.emso-fr.org/EMSO-France
Depth: 2436.0 m
Title:EMSO Ligure Ouest : Data MII capteur AQUADOPP
Date,Latitude,Longitude,X_East,Y_North,Z_Up,Amplitude_X,Amplitude_Y,Amplitude_Z,Batterie,SoundSpeed,Heading,Pitch,Roll,Pressure,TIS,Speed,Direction
, degrees North, degrees East, m.s-1, m.s-1,m.s-1, 1, 1, 1, Volt, m.s-1, degree, degree, degree, dbar, degree_C, m.s-1, degree
2020-03-31T00:04:03,42.805,6.029,0.041,0.0,-0.018,103.0,115.0,101.0,13.3,1505.2,322.8,-0.8,1.8,2470.41,13.3,0.041,90.0
2020-03-31T00:07:03,42.805,6.029,-0.002,0.012,-0.032,104.0,116.0,100.0,13.3,1505.3,326.3,-0.7,1.8,2470.393,13.31,0.012,350.5
2020-03-31T00:10:03,42.805,6.029,0.031,0.011,-0.022,103.0,116.0,101.0,13.3,1505.3,323.7,-0.7,1.8,2470.376,13.31,0.032,70.5
2020-03-31T00:13:03,42.805,6.029,0.063,0.012,-0.013,103.0,115.0,101.0,13.4,1505.3,328.3,-0.7,1.8,2470.341,13.32,0.064,79.2
2020-03-31T00:16:03,42.805,6.029,0.045,0.019,-0.035,103.0,114.0,100.0,13.3,1505.3,327.2,-0.7,1.8,2470.368,13.32,0.048,67.1
2020-03-31T00:19:03,42.805,6.029,0.055,-0.002,-0.008,102.0,116.0,100.0,13.3,1505.3,327.0,-0.7,1.9,2470.341,13.32,0.055,92.1
2020-03-31T00:22:03,42.805,6.029,0.034,0.022,-0.006,103.0,113.0,101.0,13.4,1505.3,326.6,-0.7,1.9,2470.37,13.32,0.04,57.1
2020-03-31T00:25:03,42.805,6.029,0.04,-0.003,-0.025,104.0,114.0,100.0,13.4,1505.3,325.9,-0.7,1.8,2470.351,13.32,0.04,94.3
2020-03-31T00:28:03,42.805,6.029,0.027,0.004,-0.054,103.0,114.0,100.0,13.4,1505.3,326.8,-0.7,1.8,2470.375,13.32,0.027,81.6
2020-03-31T00:31:03,42.805,6.029,0.051,0.011,-0.03,104.0,113.0,101.0,13.4,1505.3,327.5,-0.7,1.8,2470.346,13.32,0.052,77.8
2020-03-31T00:34:03,42.805,6.029,0.058,0.037,0.004,103.0,112.0,101.0,13.3,1505.3,323.8,-0.7,1.8,2470.396,13.32,0.068,57.5
2020-03-31T00:37:03,42.805,6.029,0.047,0.021,-0.022,104.0,112.0,100.0,13.4,1505.3,324.5,-0.7,1.8,2470.384,13.32,0.051,65.9
2020-03-31T00:40:03,42.805,6.029,0.058,0.012,0.005,104.0,112.0,100.0,13.4,1505.3,326.8,-0.7,1.8,2470.33,13.32,0.059,78.3
2020-03-31T00:43:03,42.805,6.029,0.047,-0.002,-0.045,105.0,113.0,100.0,13.4,1505.3,326.0,-0.7,1.8,2470.39,13.32,0.047,92.4
2020-03-31T00:46:03,42.805,6.029,0.012,0.008,-0.018,104.0,114.0,100.0,13.4,1505.3,324.2,-0.7,1.8,2470.369,13.32,0.014,56.3
2020-03-31T00:49:03,42.805,6.029,0.043,0.018,-0.002,103.0,113.0,100.0,13.3,1505.3,324.7,-0.7,1.8,2470.392,13.32,0.046,67.3
2020-03-31T00:52:03,42.805,6.029,0.03,0.008,-0.02,102.0,113.0,100.0,13.4,1505.3,323.4,-0.8,1.9,2470.371,13.32,0.031,75.1
2020-03-31T00:55:03,42.805,6.029,0.02,0.023,-0.017,103.0,112.0,100.0,13.4,1505.3,326.5,-0.7,1.8,2470.35,13.32,0.03,41.0
2020-03-31T00:58:03,42.805,6.029,0.043,0.034,-0.041,104.0,113.0,100.0,13.4,1505.3,327.0,-0.7,1.8,2470.33,13.32,0.054,51.7
2020-03-31T01:04:03,42.805,6.029,0.05,0.019,-0.025,104.0,113.0,101.0,13.3,1505.2,323.9,-0.8,1.8,2470.386,13.3,0.053,69.2
2020-03-31T01:07:04,42.805,6.029,0.047,0.018,-0.02,104.0,113.0,100.0,13.4,1505.3,326.8,-0.7,1.8,2470.353,13.31,0.05,69.0
2020-03-31T01:10:03,42.805,6.029,0.042,0.005,-0.01,103.0,114.0,102.0,13.4,1505.3,325.8,-0.7,1.8,2470.394,13.31,0.042,83.2
2020-03-31T01:13:03,42.805,6.029,0.014,0.028,-0.015,103.0,111.0,100.0,13.4,1505.3,327.6,-0.7,1.8,2470.313,13.32,0.031,26.6
2020-03-31T01:16:03,42.805,6.029,0.055,0.018,0.001,104.0,113.0,101.0,13.3,1505.3,324.8,-0.7,1.8,2470.327,13.32,0.057,71.9
2020-03-31T01:19:03,42.805,6.029,0.052,0.033,-0.027,104.0,114.0,100.0,13.4,1505.3,325.2,-0.7,1.8,2470.336,13.32,0.061,57.6
2020-03-31T01:22:03,42.805,6.029,0.028,0.022,-0.022,103.0,117.0,101.0,13.4,1505.3,326.6,-0.7,1.9,2470.343,13.32,0.035,51.8
2020-03-31T01:25:03,42.805,6.029,0.042,-0.002,-0.01,104.0,116.0,100.0,13.4,1505.3,324.6,-0.7,1.8,2470.326,13.32,0.042,92.7
2020-03-31T01:28:03,42.805,6.029,0.047,-0.004,-0.071,105.0,113.0,101.0,13.4,1505.3,323.3,-0.7,1.8,2470.316,13.32,0.047,94.9
2020-03-31T01:31:03,42.805,6.029,-0.006,0.01,-0.042,104.0,115.0,99.0,13.4,1505.3,324.6,-0.7,1.8,2470.356,13.32,0.011,329.0
2020-03-31T01:34:03,42.805,6.029,0.049,0.03,-0.042,103.0,113.0,100.0,13.4,1505.3,323.2,-0.7,1.8,2470.313,13.32,0.057,58.5
2020-03-31T01:37:03,42.805,6.029,0.054,0.033,-0.04,103.0,113.0,101.0,13.3,1505.3,324.7,-0.7,1.9,2470.301,13.32,0.063,58.6
2020-03-31T01:40:03,42.805,6.029,0.048,0.018,-0.019,103.0,112.0,101.0,13.4,1505.3,323.5,-0.7,1.8,2470.303,13.32,0.051,69.4
2020-03-31T01:43:03,42.805,6.029,0.011,0.021,-0.036,105.0,113.0,102.0,13.4,1505.3,324.3,-0.7,1.8,2470.334,13.32,0.023,27.6
2020-03-31T01:46:03,42.805,6.029,0.044,-0.002,-0.04,103.0,111.0,100.0,13.3,1505.3,326.1,-0.7,1.8,2470.313,13.32,0.044,92.6
2020-03-31T01:49:03,42.805,6.029,0.039,-0.012,-0.023,103.0,112.0,100.0,13.3,1505.3,323.9,-0.7,1.8,2470.27,13.32,0.04,107.1
2020-03-31T01:52:03,42.805,6.029,0.037,0.007,-0.034,103.0,112.0,99.0,13.3,1505.3,323.9,-0.7,1.8,2470.29,13.32,0.037,79.3
2020-03-31T01:55:03,42.805,6.029,0.049,0.025,-0.027,104.0,114.0,100.0,13.4,1505.3,325.3,-0.7,1.8,2470.336,13.32,0.055,63.0
2020-03-31T01:58:03,42.805,6.029,0.024,0.018,-0.045,104.0,112.0,101.0,13.4,1505.3,326.6,-0.7,1.8,2470.314,13.32,0.03,53.1
2020-03-31T02:04:03,42.805,6.029,0.035,-0.008,-0.029,103.0,112.0,101.0,13.3,1505.2,325.4,-0.7,1.8,2470.392,13.3,0.035,102.9
2020-03-31T02:07:03,42.805,6.029,0.031,0.009,-0.037,103.0,111.0,101.0,13.4,1505.3,323.2,-0.7,1.8,2470.338,13.31,0.032,73.8
2020-03-31T02:10:03,42.805,6.029,0.05,0.022,-0.048,103.0,114.0,100.0,13.4,1505.3,322.7,-0.7,1.8,2470.342,13.31,0.054,66.3
2020-03-31T02:13:03,42.805,6.029,0.043,0.025,-0.009,104.0,113.0,100.0,13.4,1505.3,324.5,-0.7,1.8,2470.304,13.32,0.049,59.8
2020-03-31T02:16:03,42.805,6.029,0.027,0.017,-0.043,102.0,113.0,102.0,13.4,1505.3,327.1,-0.7,1.8,2470.355,13.32,0.031,57.8
2020-03-31T02:19:03,42.805,6.029,0.044,0.028,-0.043,104.0,112.0,101.0,13.3,1505.3,325.7,-0.7,1.8,2470.302,13.32,0.052,57.5
2020-03-31T02:22:03,42.805,6.029,0.047,-0.001,-0.011,104.0,114.0,100.0,13.3,1505.3,325.2,-0.7,1.8,2470.351,13.32,0.047,91.2
2020-03-31T02:25:03,42.805,6.029,0.041,0.007,-0.037,104.0,111.0,102.0,13.4,1505.3,326.9,-0.7,1.9,2470.288,13.32,0.041,80.3
2020-03-31T02:28:03,42.805,6.029,0.05,0.005,-0.031,104.0,113.0,101.0,13.3,1505.3,324.5,-0.7,1.8,2470.319,13.32,0.05,84.3
2020-03-31T02:31:03,42.805,6.029,0.053,0.028,-0.007,102.0,111.0,100.0,13.4,1505.3,324.4,-0.7,1.7,2470.323,13.32,0.059,62.1
2020-03-31T02:34:03,42.805,6.029,0.064,0.023,-0.004,103.0,114.0,100.0,13.4,1505.3,328.7,-0.7,1.9,2470.305,13.32,0.068,70.2
2020-03-31T02:37:03,42.805,6.029,0.04,0.027,-0.006,104.0,115.0,100.0,13.3,1505.3,324.4,-0.7,1.8,2470.317,13.32,0.048,56.0
2020-03-31T02:40:03,42.805,6.029,0.033,0.031,-0.023,103.0,114.0,100.0,13.4,1505.3,324.1,-0.7,1.8,2470.346,13.32,0.045,46.8
2020-03-31T02:43:03,42.805,6.029,0.044,0.012,-0.024,103.0,113.0,102.0,13.4,1505.3,328.2,-0.7,1.8,2470.309,13.32,0.045,74.7
2020-03-31T02:46:03,42.805,6.029,0.048,0.027,-0.009,103.0,112.0,102.0,13.4,1505.3,326.8,-0.7,1.8,2470.3,13.32,0.055,60.6
2020-03-31T02:49:03,42.805,6.029,0.043,0.006,-0.051,104.0,114.0,99.0,13.4,1505.3,328.4,-0.7,1.9,2470.3,13.32,0.043,82.1
2020-03-31T02:52:03,42.805,6.029,0.048,0.04,-0.006,103.0,115.0,101.0,13.4,1505.3,324.1,-0.7,1.8,2470.321,13.32,0.062,50.2
2020-03-31T02:55:03,42.805,6.029,0.057,0.025,-0.014,104.0,115.0,100.0,13.4,1505.3,326.0,-0.7,1.8,2470.282,13.32,0.062,66.3
2020-03-31T02:58:03,42.805,6.029,0.031,0.015,-0.024,104.0,116.0,101.0,13.4,1505.3,323.9,-0.7,1.8,2470.319,13.32,0.034,64.2
2020-03-31T03:04:03,42.805,6.029,0.055,0.03,0.02,105.0,115.0,101.0,13.3,1505.2,327.4,-0.7,1.8,2470.344,13.3,0.062,61.4
2020-03-31T03:07:03,42.805,6.029,0.034,0.018,0.0,104.0,118.0,100.0,13.4,1505.3,323.1,-0.7,1.8,2470.331,13.31,0.038,62.1
2020-03-31T03:10:03,42.805,6.029,0.049,0.033,0.009,104.0,116.0,101.0,13.4,1505.3,323.7,-0.7,1.8,2470.322,13.31,0.059,56.0
2020-03-31T03:13:03,42.805,6.029,0.065,0.029,0.005,104.0,116.0,101.0,13.4,1505.3,326.6,-0.7,1.8,2470.327,13.32,0.071,66.0
2020-03-31T03:16:03,42.805,6.029,0.019,0.021,-0.042,103.0,117.0,102.0,13.3,1505.3,326.2,-0.7,1.8,2470.304,13.32,0.028,42.1
2020-03-31T03:19:03,42.805,6.029,0.019,0.021,-0.041,104.0,118.0,101.0,13.4,1505.3,328.2,-0.7,1.8,2470.259,13.32,0.028,42.1
2020-03-31T03:22:03,42.805,6.029,0.055,0.004,0.011,103.0,116.0,102.0,13.4,1505.3,326.3,-0.7,1.8,2470.314,13.32,0.055,85.8
2020-03-31T03:25:03,42.805,6.029,0.017,0.012,-0.058,104.0,120.0,102.0,13.4,1505.3,325.1,-0.7,1.9,2470.328,13.32,0.02,54.8
2020-03-31T03:28:03,42.805,6.029,0.031,0.023,-0.024,104.0,119.0,100.0,13.3,1505.3,324.6,-0.8,1.8,2470.361,13.32,0.038,53.4
2020-03-31T03:31:03,42.805,6.029,0.058,0.018,-0.028,104.0,114.0,101.0,13.4,1505.3,326.7,-0.7,1.8,2470.29,13.32,0.06,72.8
2020-03-31T03:34:03,42.805,6.029,0.041,0.012,-0.023,105.0,118.0,100.0,13.4,1505.3,323.6,-0.7,1.9,2470.298,13.32,0.042,73.7
2020-03-31T03:37:03,42.805,6.029,0.007,0.032,-0.019,103.0,116.0,101.0,13.3,1505.3,323.0,-0.7,1.8,2470.295,13.32,0.032,12.3
2020-03-31T03:40:03,42.805,6.029,0.017,0.035,0.006,104.0,118.0,101.0,13.3,1505.3,324.9,-0.7,1.8,2470.321,13.32,0.038,25.9
2020-03-31T03:43:03,42.805,6.029,0.026,0.019,-0.019,103.0,119.0,100.0,13.3,1505.3,328.4,-0.7,1.9,2470.324,13.32,0.032,53.8
2020-03-31T03:46:03,42.805,6.029,0.043,0.028,-0.01,105.0,116.0,101.0,13.4,1505.3,324.5,-0.7,1.8,2470.288,13.32,0.051,56.9
2020-03-31T03:49:03,42.805,6.029,0.027,0.018,-0.019,103.0,115.0,101.0,13.4,1505.3,326.3,-0.7,1.8,2470.305,13.32,0.032,56.3
2020-03-31T03:52:03,42.805,6.029,0.028,0.016,-0.028,104.0,116.0,101.0,13.4,1505.3,323.6,-0.7,1.8,2470.269,13.32,0.032,60.3
2020-03-31T03:55:03,42.805,6.029,0.039,0.026,-0.02,104.0,118.0,101.0,13.4,1505.3,324.6,-0.7,1.8,2470.271,13.32,0.046,56.3
2020-03-31T03:58:03,42.805,6.029,0.07,0.036,0.018,104.0,115.0,101.0,13.4,1505.3,328.4,-0.7,1.8,2470.277,13.32,0.078,62.8
2020-03-31T04:04:03,42.805,6.029,0.03,0.035,-0.032,103.0,119.0,102.0,13.3,1505.2,326.8,-0.7,1.8,2470.361,13.3,0.046,40.6
2020-03-31T04:07:03,42.805,6.029,0.035,0.023,-0.025,103.0,116.0,100.0,13.4,1505.3,324.4,-0.7,1.8,2470.298,13.31,0.041,56.7
2020-03-31T04:10:03,42.805,6.029,0.053,0.012,-0.037,104.0,117.0,102.0,13.3,1505.3,325.6,-0.7,1.9,2470.298,13.31,0.054,77.2
2020-03-31T04:13:03,42.805,6.029,0.033,0.032,-0.023,104.0,117.0,101.0,13.4,1505.3,325.1,-0.7,1.8,2470.32,13.32,0.045,45.9
2020-03-31T04:16:03,42.805,6.029,0.024,0.017,-0.072,104.0,117.0,101.0,13.4,1505.3,327.2,-0.7,1.8,2470.305,13.32,0.029,54.7
2020-03-31T04:19:03,42.805,6.029,0.023,0.029,-0.034,105.0,117.0,101.0,13.4,1505.3,323.4,-0.7,1.9,2470.314,13.32,0.037,38.4
2020-03-31T04:22:03,42.805,6.029,0.02,0.004,0.001,105.0,117.0,101.0,13.3,1505.3,328.5,-0.7,1.8,2470.295,13.32,0.02,78.7
2020-03-31T04:25:03,42.805,6.029,0.044,0.004,-0.005,104.0,114.0,102.0,13.3,1505.3,325.9,-0.7,1.8,2470.293,13.32,0.044,84.8
2020-03-31T04:28:03,42.805,6.029,0.033,0.026,-0.046,103.0,118.0,101.0,13.4,1505.3,328.0,-0.7,1.8,2470.331,13.32,0.042,51.8
2020-03-31T04:31:03,42.805,6.029,0.022,0.036,-0.037,103.0,118.0,103.0,13.3,1505.3,326.9,-0.7,1.8,2470.277,13.32,0.042,31.4
2020-03-31T04:34:03,42.805,6.029,0.028,0.027,-0.026,104.0,119.0,100.0,13.4,1505.3,327.9,-0.7,1.8,2470.284,13.32,0.038,46.0
2020-03-31T04:37:03,42.805,6.029,0.014,0.014,-0.009,104.0,120.0,101.0,13.4,1505.3,327.6,-0.7,1.8,2470.263,13.32,0.019,45.0
2020-03-31T04:40:03,42.805,6.029,0.023,0.03,-0.025,105.0,120.0,101.0,13.4,1505.3,323.6,-0.7,1.8,2470.292,13.32,0.037,37.5
2020-03-31T04:43:03,42.805,6.029,0.023,0.04,-0.027,104.0,120.0,101.0,13.4,1505.3,324.9,-0.7,1.8,2470.254,13.32,0.046,29.9
2020-03-31T04:46:03,42.805,6.029,0.032,0.023,-0.018,103.0,119.0,101.0,13.3,1505.3,324.0,-0.7,1.8,2470.299,13.32,0.039,54.3
2020-03-31T04:49:03,42.805,6.029,0.042,0.018,-0.014,103.0,116.0,101.0,13.4,1505.3,324.5,-0.8,1.8,2470.233,13.32,0.045,66.8
2020-03-31T04:52:03,42.805,6.029,0.043,0.001,-0.042,103.0,117.0,100.0,13.4,1505.3,324.3,-0.7,1.8,2470.246,13.32,0.043,88.7
2020-03-31T04:55:03,42.805,6.029,0.034,0.032,-0.002,105.0,116.0,102.0,13.4,1505.3,328.2,-0.7,1.8,2470.27,13.32,0.046,46.7
2020-03-31T04:58:03,42.805,6.029,0.025,0.025,-0.038,103.0,118.0,101.0,13.4,1505.3,327.6,-0.7,1.8,2470.294,13.32,0.035,45.0
2020-03-31T05:01:03,42.805,6.029,0.029,0.027,-0.043,103.0,115.0,102.0,13.3,1505.3,324.3,-0.7,1.8,2470.282,13.32,0.039,47.0
2020-03-31T05:04:03,42.805,6.029,0.016,0.049,-0.006,103.0,120.0,101.0,13.4,1505.3,324.6,-0.7,1.8,2470.268,13.32,0.051,18.1
2020-03-31T05:07:03,42.805,6.029,0.035,0.02,-0.01,104.0,117.0,101.0,13.4,1505.3,326.6,-0.7,1.9,2470.248,13.32,0.04,60.3
2020-03-31T05:10:03,42.805,6.029,0.037,0.024,-0.014,103.0,118.0,101.0,13.4,1505.3,326.9,-0.7,1.8,2470.293,13.32,0.044,57.0
2020-03-31T05:13:03,42.805,6.029,0.035,0.023,-0.074,102.0,115.0,102.0,13.4,1505.3,327.4,-0.8,1.8,2470.27,13.32,0.041,56.7
2020-03-31T05:16:03,42.805,6.029,-0.001,0.018,-0.014,104.0,115.0,100.0,13.3,1505.3,322.9,-0.7,1.8,2470.289,13.32,0.018,356.8
2020-03-31T05:19:03,42.805,6.029,0.028,0.019,-0.007,105.0,118.0,101.0,13.4,1505.3,326.9,-0.7,1.8,2470.25,13.32,0.033,55.8
2020-03-31T05:22:03,42.805,6.029,0.036,0.022,-0.044,104.0,115.0,100.0,13.4,1505.3,324.0,-0.7,1.9,2470.268,13.32,0.042,58.6
2020-03-31T05:25:03,42.805,6.029,0.033,0.032,-0.004,105.0,119.0,101.0,13.3,1505.3,328.3,-0.7,1.9,2470.256,13.32,0.045,45.9
2020-03-31T05:28:03,42.805,6.029,0.041,0.022,-0.031,104.0,117.0,101.0,13.3,1505.3,326.5,-0.7,1.8,2470.282,13.32,0.046,61.8
2020-03-31T05:31:03,42.805,6.029,0.043,0.011,-0.026,103.0,119.0,102.0,13.4,1505.3,325.8,-0.7,1.8,2470.248,13.32,0.044,75.7
2020-03-31T05:34:03,42.805,6.029,0.045,0.025,-0.002,103.0,117.0,101.0,13.3,1505.3,324.2,-0.7,1.9,2470.282,13.32,0.051,60.9
2020-03-31T05:37:03,42.805,6.029,0.033,0.005,-0.025,104.0,116.0,101.0,13.4,1505.3,323.3,-0.7,1.8,2470.259,13.32,0.033,81.4
2020-03-31T05:40:03,42.805,6.029,0.037,0.021,0.008,104.0,115.0,101.0,13.4,1505.3,325.3,-0.7,1.9,2470.252,13.32,0.042,60.4
2020-03-31T05:43:03,42.805,6.029,0.054,0.025,-0.012,104.0,116.0,101.0,13.3,1505.3,326.5,-0.7,1.8,2470.261,13.32,0.059,65.2
2020-03-31T05:46:03,42.805,6.029,0.027,0.015,-0.029,103.0,118.0,101.0,13.4,1505.3,326.3,-0.7,1.8,2470.258,13.32,0.03,60.9
2020-03-31T05:49:03,42.805,6.029,-0.003,0.02,-0.006,104.0,116.0,100.0,13.4,1505.3,324.9,-0.7,1.8,2470.249,13.32,0.02,351.5
2020-03-31T05:52:03,42.805,6.029,0.014,0.013,-0.014,103.0,114.0,100.0,13.4,1505.3,324.3,-0.7,1.8,2470.26,13.32,0.019,47.1
2020-03-31T05:55:03,42.805,6.029,0.054,0.008,-0.018,103.0,115.0,100.0,13.3,1505.3,324.0,-0.7,1.9,2470.243,13.32,0.054,81.6
2020-03-31T05:58:03,42.805,6.029,0.032,0.011,-0.021,104.0,118.0,100.0,13.4,1505.3,327.7,-0.7,1.8,2470.268,13.32,0.033,71.0
2020-03-31T06:04:03,42.805,6.029,0.031,0.018,-0.033,104.0,117.0,100.0,13.4,1505.2,323.7,-0.7,1.9,2470.304,13.3,0.035,59.9
2020-03-31T06:07:03,42.805,6.029,0.034,0.001,-0.052,103.0,116.0,102.0,13.3,1505.3,324.4,-0.7,1.8,2470.287,13.31,0.034,88.3
2020-03-31T06:10:03,42.805,6.029,0.025,0.025,-0.05,104.0,115.0,102.0,13.4,1505.3,323.6,-0.7,1.9,2470.279,13.31,0.035,45.0
2020-03-31T06:13:03,42.805,6.029,0.034,0.016,-0.041,104.0,118.0,101.0,13.4,1505.3,325.4,-0.7,1.8,2470.288,13.32,0.037,64.8
2020-03-31T06:16:03,42.805,6.029,0.052,0.015,-0.024,104.0,120.0,101.0,13.4,1505.3,327.3,-0.7,1.9,2470.295,13.32,0.054,73.9
2020-03-31T06:19:03,42.805,6.029,0.023,0.027,-0.018,103.0,119.0,101.0,13.4,1505.3,323.3,-0.7,1.8,2470.292,13.32,0.035,40.4
2020-03-31T06:22:03,42.805,6.029,0.032,0.012,-0.023,104.0,120.0,100.0,13.3,1505.3,325.7,-0.7,1.8,2470.29,13.32,0.034,69.4
2020-03-31T06:25:03,42.805,6.029,0.033,0.028,-0.02,103.0,119.0,101.0,13.4,1505.3,328.2,-0.7,1.8,2470.288,13.32,0.043,49.7
2020-03-31T06:28:03,42.805,6.029,0.018,0.015,-0.02,103.0,117.0,101.0,13.4,1505.3,323.5,-0.7,1.9,2470.277,13.32,0.023,50.2
2020-03-31T06:31:03,42.805,6.029,0.036,0.014,-0.012,105.0,118.0,100.0,13.4,1505.3,324.5,-0.7,1.8,2470.251,13.32,0.038,68.8
2020-03-31T06:34:03,42.805,6.029,0.029,0.023,-0.028,103.0,115.0,103.0,13.4,1505.3,324.9,-0.7,1.8,2470.253,13.32,0.037,51.6
2020-03-31T06:37:03,42.805,6.029,0.014,0.03,-0.04,104.0,118.0,100.0,13.4,1505.3,325.4,-0.7,1.8,2470.313,13.32,0.033,25.0
2020-03-31T06:40:03,42.805,6.029,0.022,0.039,-0.028,104.0,116.0,99.0,13.4,1505.3,327.8,-0.7,1.9,2470.278,13.32,0.044,29.4
2020-03-31T06:43:03,42.805,6.029,0.006,0.014,-0.028,103.0,115.0,101.0,13.4,1505.3,328.5,-0.7,1.8,2470.227,13.32,0.015,23.2
2020-03-31T06:46:03,42.805,6.029,0.026,0.026,-0.032,103.0,117.0,101.0,13.3,1505.3,328.4,-0.7,1.8,2470.283,13.32,0.036,45.0
2020-03-31T06:49:03,42.805,6.029,0.042,0.031,-0.005,103.0,116.0,101.0,13.3,1505.3,323.7,-0.7,1.9,2470.264,13.32,0.052,53.6
2020-03-31T06:52:03,42.805,6.029,0.022,0.013,-0.013,105.0,118.0,100.0,13.4,1505.3,325.8,-0.7,1.9,2470.266,13.32,0.025,59.4
2020-03-31T06:55:03,42.805,6.029,0.01,0.017,-0.018,104.0,117.0,100.0,13.4,1505.3,326.5,-0.7,1.8,2470.287,13.32,0.019,30.5
2020-03-31T06:58:03,42.805,6.029,0.0,0.039,-0.021,102.0,119.0,100.0,13.4,1505.3,326.8,-0.7,1.8,2470.244,13.32,0.039,0.0
2020-03-31T07:04:03,42.805,6.029,0.023,0.009,-0.049,104.0,119.0,101.0,13.4,1505.2,327.0,-0.7,1.8,2470.286,13.3,0.024,68.6
2020-03-31T07:07:03,42.805,6.029,0.027,0.023,-0.028,105.0,118.0,100.0,13.4,1505.3,324.1,-0.7,1.8,2470.297,13.31,0.035,49.6
2020-03-31T07:10:03,42.805,6.029,0.034,0.031,-0.024,104.0,117.0,100.0,13.3,1505.3,326.8,-0.7,1.9,2470.304,13.31,0.046,47.6
2020-03-31T07:13:03,42.805,6.029,0.023,0.016,-0.023,103.0,117.0,100.0,13.4,1505.3,323.3,-0.7,1.8,2470.279,13.32,0.028,55.2
2020-03-31T07:16:03,42.805,6.029,0.023,0.029,-0.012,103.0,117.0,100.0,13.4,1505.3,322.7,-0.7,1.8,2470.327,13.32,0.037,38.4
2020-03-31T07:19:03,42.805,6.029,0.015,0.051,-0.012,104.0,118.0,100.0,13.4,1505.3,325.7,-0.7,1.9,2470.284,13.32,0.053,16.4
2020-03-31T07:22:03,42.805,6.029,0.025,0.015,-0.053,103.0,118.0,99.0,13.3,1505.3,326.1,-0.7,1.8,2470.268,13.32,0.029,59.0
2020-03-31T07:28:03,42.805,6.029,0.026,0.029,-0.028,103.0,116.0,100.0,13.3,1505.2,325.4,-0.7,1.8,2470.321,13.3,0.038,41.9
2020-03-31T07:31:03,42.805,6.029,0.028,0.011,-0.046,105.0,118.0,100.0,13.4,1505.3,323.9,-0.7,1.8,2470.281,13.31,0.03,68.6
2020-03-31T07:34:03,42.805,6.029,0.019,0.01,-0.046,104.0,118.0,100.0,13.4,1505.3,323.6,-0.7,1.8,2470.296,13.31,0.021,62.2
2020-03-31T07:37:03,42.805,6.029,0.036,0.022,-0.034,102.0,118.0,101.0,13.3,1505.3,327.0,-0.7,1.8,2470.316,13.32,0.042,58.6
2020-03-31T07:40:03,42.805,6.029,0.01,0.019,-0.012,104.0,117.0,101.0,13.4,1505.3,326.1,-0.7,1.9,2470.304,13.32,0.021,27.8
2020-03-31T07:43:03,42.805,6.029,0.03,0.031,-0.027,102.0,117.0,100.0,13.4,1505.3,325.7,-0.7,1.9,2470.334,13.32,0.043,44.1
2020-03-31T07:46:03,42.805,6.029,-0.001,0.021,-0.069,103.0,118.0,100.0,13.4,1505.3,323.5,-0.7,1.8,2470.319,13.32,0.021,357.3
2020-03-31T07:49:03,42.805,6.029,0.023,0.02,-0.019,103.0,115.0,101.0,13.4,1505.3,327.5,-0.7,1.8,2470.298,13.32,0.03,49.0
2020-03-31T07:52:03,42.805,6.029,0.042,-0.001,-0.032,103.0,116.0,101.0,13.3,1505.3,327.2,-0.7,1.9,2470.297,13.32,0.042,91.4
2020-03-31T07:55:03,42.805,6.029,0.029,0.012,-0.025,102.0,118.0,100.0,13.3,1505.3,323.1,-0.7,1.8,2470.321,13.32,0.031,67.5
2020-03-31T07:58:03,42.805,6.029,0.002,0.013,-0.061,103.0,116.0,101.0,13.3,1505.3,328.0,-0.7,1.8,2470.305,13.32,0.013,8.7
2020-03-31T08:04:03,42.805,6.029,0.011,0.007,-0.047,103.0,117.0,100.0,13.4,1505.2,323.5,-0.7,1.8,2470.33,13.3,0.013,57.5
2020-03-31T08:07:03,42.805,6.029,0.021,-0.002,-0.035,104.0,117.0,100.0,13.4,1505.3,325.2,-0.7,1.8,2470.32,13.31,0.021,95.4
2020-03-31T08:10:03,42.805,6.029,0.011,0.031,-0.036,104.0,116.0,100.0,13.4,1505.3,324.0,-0.7,1.8,2470.348,13.31,0.032,19.5
2020-03-31T08:13:03,42.805,6.029,0.029,0.024,-0.014,103.0,115.0,100.0,13.3,1505.3,324.9,-0.7,1.8,2470.321,13.32,0.037,50.4
2020-03-31T08:16:03,42.805,6.029,0.035,0.017,0.003,103.0,116.0,101.0,13.4,1505.3,325.1,-0.7,1.8,2470.332,13.32,0.038,64.1
2020-03-31T08:19:03,42.805,6.029,0.037,0.009,0.008,102.0,114.0,101.0,13.4,1505.3,328.2,-0.7,1.8,2470.303,13.32,0.038,76.3
2020-03-31T08:22:03,42.805,6.029,0.035,0.016,-0.024,102.0,114.0,102.0,13.3,1505.3,326.5,-0.7,1.8,2470.312,13.32,0.038,65.4
2020-03-31T08:25:03,42.805,6.029,0.049,0.018,-0.036,104.0,114.0,100.0,13.3,1505.3,328.5,-0.7,1.8,2470.35,13.32,0.052,69.8
2020-03-31T08:28:03,42.805,6.029,0.045,0.028,0.006,103.0,115.0,101.0,13.4,1505.3,323.2,-0.7,1.8,2470.339,13.32,0.053,58.1
2020-03-31T08:31:03,42.805,6.029,0.039,0.023,-0.011,103.0,115.0,101.0,13.4,1505.3,325.4,-0.7,1.8,2470.308,13.32,0.045,59.5
2020-03-31T08:34:03,42.805,6.029,0.016,0.023,-0.026,103.0,116.0,100.0,13.4,1505.3,325.4,-0.7,1.8,2470.287,13.32,0.028,34.8
2020-03-31T08:37:03,42.805,6.029,0.016,0.014,-0.054,103.0,115.0,101.0,13.4,1505.3,324.9,-0.7,1.8,2470.302,13.32,0.021,48.8
2020-03-31T08:40:03,42.805,6.029,0.023,0.007,-0.021,103.0,117.0,99.0,13.4,1505.3,325.9,-0.7,1.8,2470.341,13.32,0.024,73.1
2020-03-31T08:43:03,42.805,6.029,0.034,0.02,-0.007,103.0,116.0,101.0,13.4,1505.3,324.6,-0.7,1.9,2470.313,13.32,0.039,59.5
2020-03-31T08:46:03,42.805,6.029,0.046,0.001,-0.031,103.0,115.0,101.0,13.4,1505.3,327.9,-0.7,1.9,2470.32,13.32,0.046,88.8
2020-03-31T08:49:03,42.805,6.029,0.036,0.035,-0.025,104.0,116.0,100.0,13.3,1505.3,323.6,-0.7,1.8,2470.342,13.32,0.05,45.8
2020-03-31T08:52:03,42.805,6.029,0.022,0.011,-0.012,104.0,117.0,100.0,13.4,1505.3,325.8,-0.7,1.8,2470.344,13.32,0.024,63.4
2020-03-31T08:55:03,42.805,6.029,0.029,0.028,-0.026,103.0,115.0,100.0,13.4,1505.3,325.9,-0.7,1.8,2470.404,13.32,0.04,46.0
2020-03-31T08:58:03,42.805,6.029,0.016,0.018,-0.02,102.0,115.0,100.0,13.3,1505.3,327.4,-0.7,1.8,2470.299,13.32,0.024,41.6
2020-03-31T09:04:03,42.805,6.029,0.028,0.024,-0.011,103.0,116.0,100.0,13.3,1505.2,324.4,-0.8,1.8,2470.376,13.3,0.036,49.4
2020-03-31T09:07:03,42.805,6.029,0.008,0.026,-0.02,103.0,116.0,100.0,13.4,1505.3,327.1,-0.7,1.8,2470.342,13.31,0.027,17.1
2020-03-31T09:10:03,42.805,6.029,0.015,0.028,-0.012,104.0,115.0,101.0,13.3,1505.3,325.1,-0.7,1.8,2470.326,13.32,0.031,28.2
2020-03-31T09:13:03,42.805,6.029,0.05,0.012,0.003,102.0,115.0,102.0,13.4,1505.3,327.7,-0.7,1.8,2470.3,13.32,0.051,76.5
2020-03-31T09:16:03,42.805,6.029,0.032,0.034,0.005,102.0,115.0,100.0,13.3,1505.3,325.1,-0.7,1.8,2470.334,13.32,0.046,43.3
2020-03-31T09:19:03,42.805,6.029,0.017,0.036,-0.048,102.0,118.0,100.0,13.4,1505.3,327.0,-0.7,1.9,2470.341,13.32,0.039,25.3
2020-03-31T09:22:03,42.805,6.029,0.006,0.02,-0.042,104.0,116.0,100.0,13.3,1505.3,324.0,-0.7,1.8,2470.326,13.32,0.02,16.7
2020-03-31T09:25:03,42.805,6.029,0.018,0.018,-0.041,102.0,117.0,101.0,13.3,1505.3,326.8,-0.7,1.9,2470.339,13.32,0.025,45.0
2020-03-31T09:28:03,42.805,6.029,0.031,0.02,-0.03,104.0,116.0,102.0,13.4,1505.3,325.7,-0.7,1.8,2470.31,13.32,0.036,57.2
2020-03-31T09:31:03,42.805,6.029,0.033,0.024,-0.019,103.0,116.0,102.0,13.4,1505.3,323.2,-0.7,1.9,2470.316,13.32,0.04,54.0
2020-03-31T09:34:03,42.805,6.029,0.027,0.013,-0.014,103.0,116.0,100.0,13.4,1505.3,325.9,-0.7,1.8,2470.402,13.32,0.029,64.3
2020-03-31T09:37:03,42.805,6.029,0.031,0.029,-0.019,104.0,117.0,100.0,13.3,1505.3,326.8,-0.7,1.8,2470.361,13.32,0.042,46.9
2020-03-31T09:40:03,42.805,6.029,0.043,0.017,-0.002,103.0,116.0,101.0,13.3,1505.3,324.9,-0.7,1.8,2470.347,13.32,0.046,68.4
2020-03-31T09:43:03,42.805,6.029,0.02,0.046,-0.003,104.0,116.0,101.0,13.4,1505.3,326.6,-0.7,1.8,2470.326,13.32,0.05,23.5
2020-03-31T09:46:03,42.805,6.029,0.027,0.032,-0.017,103.0,117.0,100.0,13.3,1505.3,325.8,-0.7,1.8,2470.364,13.32,0.041,40.2
2020-03-31T09:49:03,42.805,6.029,0.036,0.017,0.006,104.0,117.0,101.0,13.4,1505.3,327.5,-0.8,1.8,2470.314,13.32,0.039,64.7
2020-03-31T09:52:03,42.805,6.029,0.027,0.049,0.007,105.0,115.0,100.0,13.4,1505.3,324.6,-0.7,1.8,2470.358,13.32,0.055,28.9
2020-03-31T09:55:03,42.805,6.029,0.04,0.013,-0.029,104.0,115.0,100.0,13.4,1505.3,326.5,-0.7,1.8,2470.36,13.32,0.042,72.0
2020-03-31T09:58:03,42.805,6.029,0.024,0.033,-0.043,104.0,117.0,100.0,13.4,1505.3,325.5,-0.7,1.8,2470.332,13.32,0.04,36.0
2020-03-31T10:04:03,42.805,6.029,0.017,0.026,-0.039,104.0,117.0,101.0,13.3,1505.2,326.5,-0.7,1.8,2470.363,13.3,0.031,33.2
2020-03-31T10:07:03,42.805,6.029,0.041,0.038,-0.006,103.0,118.0,101.0,13.4,1505.3,327.3,-0.7,1.8,2470.399,13.31,0.055,47.2